Regional Weather Roundup
Issued by NWS Wakefield, VA

Home | Current Version | Previous Version | Graphics & Text | Print | Product List | Glossary On
Versions: 1 2 3 4 5 6 7 8 9 10 11 12 13 14 15 16 17 18 19 20 21 22 23 24 25 26 27 28 29 30 31 32 33 34 35 36 37 38 39 40 41 42 43 44 45 46 47 48 49 50
000
ASUS41 KAKQ 180410
RWRAKQ

REGIONAL WEATHER ROUNDUP
NATIONAL WEATHER SERVICE WAKEFIELD VA
1100 PM EST WED DEC 17 2014

Note: "fair" indicates few or no clouds below 12,000 feet with no
significant weather and/or obstructions to visibility. * = Denotes
station may not report precipitation (e.g., rain,snow,etc.),
thunder or fog.

VAZ042-051-052>054-056-180500-
NORTHERN VIRGINIA

CITY           SKY/WX    TMP DP  RH WIND       PRES   REMARKS
WASH NATIONAL  PTCLDY    42  23  46 NW14G28   30.07R
DULLES         PTCLDY    36  24  62 NW13      30.07R
FORT BELVOIR   CLEAR     39  24  53 NW14      30.07R
QUANTICO       CLEAR     38  24  57 N7        30.08R
FREDERICKSBRG* PTCLDY    35  29  79 CALM      30.06R
STAFFORD*      PTCLDY    34  24  65 CALM      30.10R
WARRENTON      CLEAR     38  30  71 NW13      30.05R
CULPEPER*      CLEAR     39  25  56 N6        30.07R
MANASSAS*      CLEAR     36  27  69 CALM      30.08R
LEESBURG*      PTCLDY    37  28  70 NW14G20   30.07R
WINCHESTER     CLOUDY    37  19  48 NW10G21   30.07R
FRONT ROYAL*   MOCLDY    36  23  60 NW3       30.06R
LURAY*         MOCLDY    34  27  75 E3        30.06S
$$

VAZ048-049-060>072-079>083-180500-
CENTRAL AND SOUTH CENTRAL VIRGINIA

CITY           SKY/WX    TMP DP  RH WIND       PRES   REMARKS
RICHMOND       MOCLDY    42  31  64 N3        30.05R
CHESTERFIELD*  MOCLDY    37  21  52 CALM      30.06R
PETERSBURG*    MOCLDY    34  33  96 W5        30.06R
HANOVER        MOCLDY    39  27  62 N3        30.07R
TAPPAHANNOCK*  MOCLDY    40  25  53 NW6       30.06R
QUINTON*       MOCLDY    41  28  60 N3        30.05S
CHARLOTTSVILLE MOCLDY    38  23  55 CALM      30.05R
GORDONSVILLE*  MOCLDY    40  23  50 CALM      30.05R
ORANGE*        PTCLDY    34  28  80 CALM      30.07R
LOUISA*        MOCLDY    34  28  80 CALM      30.05R
BUMPASS*       MOCLDY    37  28  68 CALM      30.06R
FARMVILLE*     CLOUDY    43  24  45 CALM      30.05R
CREWE*         MOCLDY    44  24  45 W5        30.04S
FORT PICKETT*  MOCLDY    41  26  55 W3        30.04S
CHASE CITY*    MOCLDY    45  32  59 W5        30.06S
CLARKSVILLE*   MOCLDY    43  30  61 CALM      30.06S
SOUTH HILL*    MOCLDY    39  31  74 CALM      30.11S
LAWRENCEVILLE* MOCLDY    42  32  68 CALM      30.05S
EMPORIA*       PTCLDY    39  32  75 W3        30.06F
$$

VAZ088>098-180500-
SOUTHEAST VIRGINIA

CITY           SKY/WX    TMP DP  RH WIND       PRES   REMARKS
NORFOLK        PTCLDY    48  35  60 W5        30.02S
VIRGINIA BEACH PTCLDY    43  37  79 W7        30.02S
NORFOLK NAVAL  PTCLDY    49  37  63 W5        30.04R
WEST POINT*    MOCLDY    43  29  59 N3        30.06S
SALUDA*        FAIR      42  31  65 N8        30.04S
NEWPORT NEWS   PTCLDY    47  34  60 N3        30.03R
LANGLEY AFB    PTCLDY    45  35  68 NW5       30.04R
FORT EUSTIS    PTCLDY    47  35  62 N7        30.02R
WILLIAMSBURG*  PTCLDY    46  36  66 N5        30.05S
HR EXEC AP*    PTCLDY    32  28  86 CALM      30.06R
FRANKLIN*      PTCLDY    39  34  81 CALM      30.04S
WAKEFIELD      PTCLDY    37  34  89 CALM      30.04S
$$

VAZ020-022-025-037-045-180500-
WEST CENTRAL AND SOUTHWEST VIRGINIA

CITY           SKY/WX    TMP DP  RH WIND       PRES   REMARKS
STAUNTON*      MOCLDY    32  22  67 CALM      30.07S
WAYNESBORO*    MOCLDY    34  22  62 SW3       30.04F
HOT SPRINGS VA MOCLDY    26  22  87 W23G31    29.93S WCI  11
LYNCHBURG      CLOUDY    40  26  57 W6        30.07R
DANVILLE       MOCLDY    46  25  43 W7        30.08R
SOUTH BOSTON*  MOCLDY    44  27  51 W5        30.07S
MARTINSVILLE   PTCLDY    32  30  92 CALM      30.10S
ROANOKE        PTCLDY    40  24  53 NW20G25   30.09S
BLACKSBURG     CLEAR     33  25  72 W13G22    30.10S WCI  24
DUBLIN*        PTCLDY    35  29  78 W13       30.11R
MARION*        PTCLDY    34  29  82 W10       30.12S
HILLSVILLE*    PTCLDY    34  29  83 W16G22    30.06F WCI  24
RICHLANDS*     CLOUDY    31  26  84 NW6       30.13S
WISE*          CLEAR     32  30  93 NW3       30.15F
ABINGDON*      CLEAR     33  31  91 W3        30.15S
$$

MDZ021>025-VAZ099-100-180500-
SOUTHERN MARYLAND AND THE DELMARVA PENINSULA

CITY           SKY/WX    TMP DP  RH WIND       PRES   REMARKS
PATUXENT RIVER PTCLDY    41  26  55 NW14      30.05R
BAY BRIDGE APT   N/A     39  27  60 NW13G20   30.03S
LEONARDTOWN    PTCLDY    37  27  65 NW3       30.06R
DOVER          CLEAR     38  24  56 W14       29.97F
GEORGETOWN     CLEAR     39  26  59 NW6       30.02S
EASTON         CLEAR     40  29  65 NW9       30.07R
CAMBRIDGE      CLEAR     41  28  60 NW6       30.03S
SALISBURY      CLEAR     40  28  62 NW5       30.02S
OCEAN CITY     CLEAR     39  28  64 NW5       30.01S
WALLOPS ISLAND PTCLDY    38  32  79 NW6       30.03S
ACCOMACK*      PTCLDY    41  32  70 N5        30.03S
$$

NCZ012>017-030>032-180500-
NORTH CENTRAL AND EASTERN NORTH CAROLINA

CITY           SKY/WX    TMP DP  RH WIND       PRES   REMARKS
ROANOKE RAPIDS MOCLDY    43  32  65 W3        30.06S
RALEIGH        PTCLDY    41  34  76 CALM      30.08S
ELIZABETH CITY MOCLDY    44  37  76 SW7       30.04S
AHOSKIE*       MOCLDY    39  36  89 CALM      30.06S
EDENTON*         N/A     40  39  95 CALM      30.05S
CURRITUCK*     MOCLDY    41  37  85 SW3       30.04S
KILL DEVIL HLS MOCLDY    46  42  86 SW3       30.03S
MANTEO         MOCLDY    47  41  82 W5        30.05S
CAPE HATTERAS  MOCLDY    49  46  90 W6        30.06S
TARBORO*       MOCLDY    36  35  96 CALM      30.07F
GOLDSBORO      MOCLDY    45  44  99 CALM      30.06S
WASHINGTON     CLOUDY    41  39  91 CALM      30.07R
GREENVILLE     MOCLDY    41  39  93 CALM      30.08S
NEW BERN       CLOUDY    48  40  73 SW6       30.09R
WILMINGTON     MOCLDY    43  41  93 CALM      30.09F
$$

VAZ048-180500-
ELSEWHERE

CITY           SKY/WX    TMP DP  RH WIND       PRES   REMARKS
HARRISBURG PA  CLOUDY    37  22  54 NW22G29   30.02S
BALTIMORE      PTCLDY    36  24  62 W7        30.03F
ANNAPOLIS      CLEAR     40  24  53 NW10      30.04R
ANDREWS AFB    NOT AVBL
PHILADELPHIA   PTCLDY    40  21  46 NW21G29   29.99F
HENDERSON NC   PTCLDY    44  27  50 NW3       30.06F
GREENSBORO     MOCLDY    43  29  57 CALM      30.07R
ROCKY MOUNT    MOCLDY    41  36  82 CALM      30.07S
$$

VAZ100-180500-
MARINE

STATION/POSITION TIME  TEMP    WIND        PRES    WAVE   SWELL
                       AIR SEA DIR/SP/G            HT/PER HT/PER
                 (UTC) (F)     (DEG/KT/KT) (MB)    (FT/S) (FT/S)
CAPE MAY NJ      0400   41 44  310/  6/ 17 1015.0F
LEWES DE         0400   41 44  300/ 13/ 14 1015.8F
15NM E FENWICK I 0400   44 47              1015.8R   3/ 4
OCEAN-CITY-INLET 0400   41 45  320/  6/  7 1016.1F
WACHAPREAGUE VA  0400   43 47  330/  4/  7 1016.7S
THOMAS POINT MD  0400   40 43  310/ 14/ 17 1018.2R
GOOSES REEF MD   0400   41     VRB 12/ 16  1016.2R
COVE POINT MD    0400   41     330/  6/ 10 1017.1R
SOLOMONS ISLAND  0400      44                N/A
BISHOPS HEAD MD  0400   39 44  340/  5/  8 1016.5R
PINEY POINT MD   0400          340/ 15/ 17   N/A
POTOMAC MD       0400   43     350/ 10/ 12 1016.4S
CAMBRIDGE MD     0400   41 42  320/  9/ 12 1016.7R
LEWISETTA VA     0400   43 44  350/  9/ 14 1017.3R
RAPPAHANNOCK LGT 0400          340/ 17/ 18 1017.2F
STINGRAY PT      0400   45     360/ 10/ 12 1017.5F
YORK RVR RNG VA  0400   47      20/ 11/ 12 1016.3F
YORKTOWN VA      0400   46 46  350/  5/  6 1016.6F
JAMESTOWN VA     0400   46      10/  4/  6   N/A
DOMINION TERM VA 0400   47     280/  8/  9 1016.7R
KIPTOPEKE VA     0400      51   20/  7/  9   N/A
CHES BAY BRIDGE  0400   48 46  260/  9/ 10 1016.1R
CAPE HENRY VA    0400   49     260/  9/ 12 1015.1S
CHESAPEAKE LGHT  0300   50     250/ 15/ 15 1016.9F
WILLOUBY STN VA  0400   49     290/ 13/ 15 1017.1R
S CRANEY ISL VA  0400          270/  6/  8 1016.6R
CAPE HENRY BUOY  0400      47                N/A     1/ 9
1ST LANDING BUOY 0400   48     270/  8/ 10 1016.0F
CAPE CHARLES BUO 0400      48                N/A     1/ 8   2/ 8
64NM E OF VA BCH 0400   54 54  270/ 12/ 14 1015.8F   2/ 8   2/ 8
DUCK PIER NC     0400   49 49  250/  7/  9 1016.1F
44100 DUCK FRF   0400      51                N/A     2/ 8
44056 DUCK FRF   0400      49                N/A     1/ 8
OREGON INLET NC  0400   50 51  230/  6/  7 1017.3F
HATTERAS NC      0400   52 55  260/  7/ 10 1018.3S
DIAMOND SHLS NC  0400   57                 1018.2R   3/ 7
CAPE LOOKOUT NC  0300   55     260/  8/  9 1018.3R
$$


USA.gov is the U.S. government's official web portal to all federal, state and local government web resources and services.